| time (UTC) | temp F | wind direction | speed MPH | gust MPH | rain 1hr in | rain 24hr in | rain mn in | humidity % | barometer mb |
| 20260906182530 | 68 | 40 | 6.0 | 15.0 | 0.00 | 0.00 | 0.00 | 73 | 1017.4 |
| 20260906181526 | 68 | 42 | 6.0 | 13.0 | 0.00 | 0.00 | 0.00 | 72 | 1017.4 |
| 20260906180522 | 67 | 25 | 4.0 | 9.0 | 0.00 | 0.00 | 0.00 | 73 | 1017.3 |
| 20260906175518 | 67 | 38 | 5.0 | 15.0 | 0.00 | 0.00 | 0.00 | 73 | 1017.4 |
| 20260906174533 | 67 | 56 | 4.0 | 10.0 | 0.00 | 0.00 | 0.00 | 74 | 1017.6 |
| 20260906173528 | 68 | 337 | 4.0 | 10.0 | 0.00 | 0.00 | 0.00 | 74 | 1017.7 |
| 20260906172525 | 67 | 33 | 5.0 | 11.0 | 0.00 | 0.00 | 0.00 | 76 | 1017.8 |
| 20260906171521 | 67 | 26 | 4.0 | 9.0 | 0.00 | 0.00 | 0.00 | 75 | 1017.8 |
| 20260906170516 | 66 | 57 | 8.0 | 14.0 | 0.00 | 0.00 | 0.00 | 76 | 1017.9 |
| 20260906165553 | 65 | 51 | 6.0 | 11.0 | 0.00 | 0.00 | 0.00 | 80 | 1017.9 |
| 20260906164529 | 65 | 49 | 7.0 | 11.0 | 0.00 | 0.00 | 0.00 | 80 | 1018.0 |
| 20260906163525 | 63 | 44 | 6.0 | 11.0 | 0.00 | 0.00 | 0.00 | 82 | 1018.2 |
| 20260906162542 | 63 | 53 | 5.0 | 8.0 | 0.00 | 0.00 | 0.00 | 83 | 1018.2 |
| 20260906161518 | 63 | 47 | 5.0 | 8.0 | 0.00 | 0.00 | 0.00 | 86 | 1018.4 |
| 20260906160534 | 62 | 40 | 4.0 | 9.0 | 0.00 | 0.00 | 0.00 | 87 | 1018.4 |
| 20260906155531 | 62 | 45 | 4.0 | 9.0 | 0.00 | 0.00 | 0.00 | 88 | 1018.5 |
| 20260906154526 | 61 | 40 | 5.0 | 11.0 | 0.00 | 0.00 | 0.00 | 90 | 1018.6 |
| 20260906153522 | 60 | 34 | 4.0 | 8.0 | 0.00 | 0.00 | 0.00 | 91 | 1018.6 |
| 20260906152538 | 60 | 31 | 4.0 | 9.0 | 0.00 | 0.00 | 0.00 | 92 | 1018.5 |
| 20260906151534 | 60 | 45 | 5.0 | 11.0 | 0.00 | 0.00 | 0.00 | 93 | 1018.5 |
| 20260906150530 | 59 | 44 | 8.0 | 14.0 | 0.00 | 0.00 | 0.00 | 94 | 1018.6 |
| 20260906145527 | 59 | 32 | 4.0 | 10.0 | 0.00 | 0.00 | 0.00 | 95 | 1018.6 |
| 20260906144522 | 59 | 27 | 4.0 | 9.0 | 0.00 | 0.00 | 0.00 | 95 | 1018.6 |
| 20260906143517 | 59 | 34 | 5.0 | 14.0 | 0.00 | 0.00 | 0.00 | 96 | 1018.4 |
| 20260906142534 | 59 | 41 | 3.0 | 7.0 | 0.00 | 0.00 | 0.00 | 96 | 1018.3 |
| 20260906141529 | 59 | 39 | 4.0 | 9.0 | 0.00 | 0.00 | 0.00 | 97 | 1018.2 |
| 20260906140525 | 58 | 47 | 5.0 | 14.0 | 0.00 | 0.00 | 0.00 | 98 | 1018.3 |
| 20260906135521 | 58 | 29 | 4.0 | 11.0 | 0.00 | 0.00 | 0.00 | 98 | 1018.3 |
| 20260906134537 | 58 | 30 | 2.0 | 6.0 | 0.00 | 0.00 | 0.00 | 98 | 1018.2 |
| 20260906133532 | 58 | 28 | 3.0 | 7.0 | 0.00 | 0.00 | 0.00 | 98 | 1018.0 |
| 20260906132529 | 58 | 37 | 3.0 | 7.0 | 0.00 | 0.00 | 0.00 | 98 | 1018.0 |
| 20260906131525 | 58 | 10 | 4.0 | 8.0 | 0.00 | 0.00 | 0.00 | 98 | 1017.9 |
| 20260906130520 | 58 | 35 | 4.0 | 7.0 | 0.00 | 0.00 | 0.00 | 98 | 1017.9 |
| 20260906125537 | 58 | 41 | 4.0 | 8.0 | 0.00 | 0.00 | 0.00 | 98 | 1017.8 |
| 20260906124533 | 58 | 26 | 3.0 | 7.0 | 0.00 | 0.00 | 0.00 | 98 | 1017.8 |
| 20260906123529 | 58 | 38 | 3.0 | 10.0 | 0.00 | 0.00 | 0.00 | 98 | 1017.8 |
| 20260906122525 | 58 | 61 | 2.0 | 6.0 | 0.00 | 0.00 | 0.00 | 98 | 1017.6 |
| 20260906121520 | 58 | 45 | 3.0 | 8.0 | 0.00 | 0.00 | 0.00 | 99 | 1017.6 |
| 20260906120515 | 58 | 39 | 2.0 | 7.0 | 0.00 | 0.00 | 0.00 | 99 | 1017.3 |
| 20260906115532 | 58 | 26 | 3.0 | 6.0 | 0.00 | 0.00 | 0.00 | 99 | 1017.2 |
| 20260906114527 | 58 | 31 | 4.0 | 7.0 | 0.00 | 0.00 | 0.00 | 99 | 1017.2 |
| 20260906113523 | 58 | 33 | 3.0 | 7.0 | 0.00 | 0.00 | 0.00 | 99 | 1017.2 |
| 20260906112539 | 58 | 45 | 4.0 | 9.0 | 0.00 | 0.00 | 0.00 | 99 | 1017.0 |
| 20260906111515 | 58 | 39 | 3.0 | 7.0 | 0.00 | 0.00 | 0.00 | 99 | 1016.8 |
| 20260906110532 | 58 | 35 | 4.0 | 8.0 | 0.00 | 0.00 | 0.00 | 99 | 1016.6 |
| 20260906105527 | 58 | 30 | 3.0 | 7.0 | 0.00 | 0.00 | 0.00 | 99 | 1016.3 |
| 20260906104544 | 58 | 37 | 3.0 | 6.0 | 0.00 | 0.00 | 0.00 | 99 | 1016.2 |
| 20260906103540 | 58 | 38 | 5.0 | 11.0 | 0.00 | 0.00 | 0.00 | 99 | 1016.1 |
| 20260906102516 | 58 | 31 | 5.0 | 10.0 | 0.00 | 0.00 | 0.00 | 99 | 1015.9 |
| 20260906101553 | 58 | 36 | 4.0 | 7.0 | 0.00 | 0.00 | 0.00 | 99 | 1015.9 |
| 20260906100548 | 58 | 38 | 2.0 | 3.0 | 0.00 | 0.00 | 0.00 | 99 | 1015.9 |
| 20260906095523 | 58 | 32 | 3.0 | 6.0 | 0.00 | 0.00 | 0.00 | 99 | 1015.9 |
| 20260906094520 | 58 | 31 | 3.0 | 4.0 | 0.00 | 0.00 | 0.00 | 99 | 1015.7 |
| 20260906093516 | 58 | 45 | 4.0 | 6.0 | 0.00 | 0.00 | 0.00 | 99 | 1015.7 |
| 20260906092532 | 58 | 29 | 2.0 | 4.0 | 0.00 | 0.00 | 0.00 | 99 | 1015.5 |
| 20260906091528 | 58 | 40 | 3.0 | 8.0 | 0.00 | 0.00 | 0.00 | 99 | 1015.4 |
| 20260906090543 | 58 | 42 | 3.0 | 6.0 | 0.00 | 0.00 | 0.00 | 99 | 1015.3 |
| 20260906085519 | 58 | 42 | 1.0 | 3.0 | 0.00 | 0.00 | 0.00 | 99 | 1015.3 |
| 20260906084535 | 59 | 42 | 2.0 | 6.0 | 0.00 | 0.00 | 0.00 | 99 | 1015.2 |
| 20260906083532 | 59 | 38 | 2.0 | 7.0 | 0.00 | 0.00 | 0.00 | 99 | 1015.2 |
| 20260906082527 | 59 | 42 | 3.0 | 6.0 | 0.00 | 0.00 | 0.00 | 99 | 1014.9 |
| 20260906081523 | 59 | 72 | 0.0 | 1.0 | 0.00 | 0.00 | 0.00 | 99 | 1014.9 |
| 20260906080519 | 59 | 37 | 1.0 | 3.0 | 0.00 | 0.00 | 0.00 | 98 | 1014.9 |
| 20260906075535 | 59 | 62 | 1.0 | 3.0 | 0.00 | 0.00 | 0.00 | 98 | 1015.0 |
| 20260906074531 | 59 | 82 | 1.0 | 2.0 | 0.00 | 0.00 | 0.00 | 98 | 1014.8 |
| 20260906073526 | 59 | 66 | 2.0 | 3.0 | 0.00 | 0.00 | 0.00 | 99 | 1014.7 |
| 20260906072522 | 59 | 48 | 3.0 | 4.0 | 0.00 | 0.00 | 0.00 | 97 | 1014.6 |
| 20260906071518 | 60 | 26 | 2.0 | 6.0 | 0.00 | 0.00 | 0.00 | 95 | 1014.5 |
| 20260906070533 | 60 | 44 | 2.0 | 3.0 | 0.00 | 0.00 | 0.00 | 97 | 1014.5 |
| 20260906065549 | 60 | 0.0 | 0.0 | 0.00 | 0.00 | 0.00 | 97 | 1014.4 | |
| 20260906064524 | 60 | 0.0 | 0.0 | 0.00 | 0.00 | 0.00 | 96 | 1014.4 | |
| 20260906063521 | 61 | 206 | 0.0 | 1.0 | 0.00 | 0.00 | 0.00 | 96 | 1014.3 |
| 20260906062517 | 61 | 227 | 0.0 | 1.0 | 0.00 | 0.00 | 0.00 | 94 | 1014.4 |
| 20260906061533 | 61 | 152 | 0.0 | 2.0 | 0.00 | 0.00 | 0.00 | 93 | 1014.6 |
| 20260906060529 | 61 | 152 | 0.0 | 1.0 | 0.00 | 0.00 | 0.00 | 93 | 1014.6 |
| 20260906055525 | 61 | 108 | 1.0 | 2.0 | 0.00 | 0.00 | 0.00 | 93 | 1014.7 |
| 20260906054521 | 61 | 91 | 1.0 | 2.0 | 0.00 | 0.00 | 0.00 | 92 | 1014.5 |
| 20260906053536 | 62 | 159 | 1.0 | 2.0 | 0.00 | 0.00 | 0.00 | 91 | 1014.6 |
| 20260906052532 | 62 | 46 | 2.0 | 4.0 | 0.00 | 0.00 | 0.00 | 90 | 1014.6 |
| 20260906051528 | 62 | 45 | 2.0 | 3.0 | 0.00 | 0.00 | 0.00 | 90 | 1014.5 |
| 20260906050524 | 62 | 2 | 2.0 | 3.0 | 0.00 | 0.00 | 0.00 | 90 | 1014.7 |
| 20260906045531 | 61 | 52 | 1.0 | 2.0 | 0.00 | 0.00 | 0.00 | 91 | 1014.5 |
| 20260906044527 | 62 | 244 | 0.0 | 1.0 | 0.00 | 0.00 | 0.00 | 93 | 1014.6 |
| 20260906043523 | 62 | 340 | 1.0 | 2.0 | 0.00 | 0.00 | 0.00 | 93 | 1014.6 |
| 20260906042519 | 62 | 41 | 4.0 | 8.0 | 0.00 | 0.00 | 0.00 | 92 | 1014.6 |
| 20260906041535 | 62 | 35 | 3.0 | 6.0 | 0.00 | 0.00 | 0.00 | 96 | 1014.6 |
| 20260906040531 | 63 | 59 | 2.0 | 4.0 | 0.00 | 0.00 | 0.00 | 96 | 1014.5 |
| 20260906035526 | 63 | 71 | 2.0 | 3.0 | 0.00 | 0.00 | 0.00 | 96 | 1014.5 |
| 20260906034522 | 63 | 68 | 2.0 | 3.0 | 0.00 | 0.00 | 0.00 | 96 | 1014.5 |
| 20260906033519 | 63 | 68 | 1.0 | 2.0 | 0.00 | 0.00 | 0.00 | 96 | 1014.3 |
| 20260906032515 | 63 | 52 | 3.0 | 6.0 | 0.00 | 0.00 | 0.00 | 96 | 1014.3 |
| 20260906031531 | 63 | 47 | 3.0 | 7.0 | 0.00 | 0.00 | 0.00 | 96 | 1014.2 |
| 20260906030527 | 63 | 41 | 3.0 | 6.0 | 0.00 | 0.00 | 0.00 | 96 | 1014.0 |
| 20260906025523 | 63 | 43 | 2.0 | 6.0 | 0.00 | 0.00 | 0.00 | 95 | 1014.2 |
| 20260906024518 | 63 | 35 | 2.0 | 6.0 | 0.00 | 0.00 | 0.00 | 95 | 1014.1 |
| 20260906023615 | 63 | 31 | 3.0 | 6.0 | 0.00 | 0.00 | 0.00 | 95 | 1013.9 |
| 20260906022531 | 63 | 33 | 2.0 | 6.0 | 0.00 | 0.00 | 0.00 | 95 | 1013.9 |
| 20260906021610 | 63 | 43 | 2.0 | 4.0 | 0.00 | 0.00 | 0.00 | 95 | 1013.8 |
| 20260906020523 | 63 | 55 | 3.0 | 4.0 | 0.00 | 0.00 | 0.00 | 94 | 1014.0 |
| 20260906015519 | 63 | 48 | 2.0 | 4.0 | 0.00 | 0.00 | 0.00 | 94 | 1013.8 |
| 20260906014536 | 63 | 51 | 2.0 | 4.0 | 0.00 | 0.00 | 0.00 | 93 | 1013.9 |
| 20260906013551 | 63 | 50 | 2.0 | 4.0 | 0.00 | 0.00 | 0.00 | 93 | 1014.1 |
| 20260906012526 | 64 | 54 | 1.0 | 3.0 | 0.00 | 0.00 | 0.00 | 92 | 1014.0 |
| 20260906011523 | 64 | 57 | 1.0 | 3.0 | 0.00 | 0.00 | 0.00 | 91 | 1013.8 |
| 20260906010520 | 65 | 61 | 3.0 | 6.0 | 0.00 | 0.00 | 0.00 | 90 | 1014.0 |
| 20260906005516 | 65 | 55 | 5.0 | 10.0 | 0.00 | 0.00 | 0.00 | 90 | 1013.9 |
| 20260906004532 | 64 | 57 | 3.0 | 7.0 | 0.00 | 0.00 | 0.00 | 91 | 1013.9 |
| 20260906003548 | 63 | 48 | 2.0 | 4.0 | 0.00 | 0.00 | 0.00 | 93 | 1013.8 |
| 20260906002545 | 62 | 181 | 0.0 | 1.0 | 0.00 | 0.00 | 0.00 | 96 | 1013.6 |
| 20260906001521 | 62 | 0.0 | 0.0 | 0.00 | 0.00 | 0.00 | 96 | 1013.6 | |
| 20260906000517 | 62 | 228 | 1.0 | 1.0 | 0.00 | 0.00 | 0.00 | 95 | 1013.5 |
| 20260905235533 | 63 | 224 | 0.0 | 1.0 | 0.00 | 0.00 | 0.00 | 94 | 1013.5 |
| 20260905234530 | 63 | 217 | 1.0 | 1.0 | 0.00 | 0.00 | 0.00 | 93 | 1013.7 |
| 20260905233525 | 64 | 238 | 1.0 | 2.0 | 0.00 | 0.00 | 0.00 | 90 | 1013.5 |
| 20260905232521 | 66 | 62 | 2.0 | 6.0 | 0.00 | 0.00 | 0.00 | 86 | 1013.3 |
| 20260905231517 | 65 | 54 | 2.0 | 7.0 | 0.00 | 0.00 | 0.00 | 88 | 1013.1 |
| 20260905230614 | 66 | 226 | 0.0 | 1.0 | 0.00 | 0.00 | 0.00 | 86 | 1013.1 |
| 20260905225629 | 67 | 32 | 3.0 | 7.0 | 0.00 | 0.00 | 0.00 | 82 | 1013.1 |
| 20260905224526 | 68 | 27 | 1.0 | 3.0 | 0.00 | 0.00 | 0.00 | 81 | 1013.0 |
| 20260905223522 | 68 | 43 | 5.0 | 14.0 | 0.00 | 0.00 | 0.00 | 79 | 1013.0 |
| 20260905222518 | 69 | 36 | 4.0 | 8.0 | 0.00 | 0.00 | 0.00 | 78 | 1013.0 |
| 20260905221555 | 69 | 33 | 4.0 | 9.0 | 0.00 | 0.00 | 0.00 | 78 | 1012.9 |
| 20260905220531 | 70 | 26 | 3.0 | 8.0 | 0.00 | 0.00 | 0.00 | 77 | 1012.7 |
| 20260905215527 | 70 | 5 | 3.0 | 8.0 | 0.00 | 0.00 | 0.00 | 77 | 1012.6 |
| 20260905214523 | 71 | 39 | 3.0 | 10.0 | 0.00 | 0.00 | 0.00 | 77 | 1012.6 |
| 20260905213519 | 71 | 37 | 5.0 | 9.0 | 0.00 | 0.00 | 0.00 | 76 | 1012.5 |
| 20260905212555 | 71 | 34 | 5.0 | 13.0 | 0.00 | 0.00 | 0.00 | 76 | 1012.5 |
| 20260905211551 | 71 | 50 | 4.0 | 9.0 | 0.00 | 0.00 | 0.00 | 75 | 1012.4 |
| 20260905210529 | 71 | 39 | 5.0 | 9.0 | 0.00 | 0.00 | 0.00 | 75 | 1012.3 |
| 20260905205524 | 72 | 37 | 5.0 | 10.0 | 0.00 | 0.00 | 0.00 | 72 | 1012.3 |
| 20260905204520 | 72 | 44 | 6.0 | 14.0 | 0.00 | 0.00 | 0.00 | 73 | 1012.3 |
| 20260905203536 | 72 | 30 | 4.0 | 10.0 | 0.00 | 0.00 | 0.00 | 73 | 1012.3 |
| 20260905202531 | 71 | 41 | 4.0 | 7.0 | 0.00 | 0.00 | 0.00 | 75 | 1012.2 |
| 20260905201527 | 72 | 38 | 6.0 | 11.0 | 0.00 | 0.00 | 0.00 | 74 | 1012.1 |
| 20260905200523 | 72 | 50 | 5.0 | 10.0 | 0.00 | 0.00 | 0.00 | 74 | 1012.1 |
| 20260905195519 | 72 | 31 | 3.0 | 9.0 | 0.00 | 0.00 | 0.00 | 75 | 1012.1 |
| 20260905194534 | 72 | 41 | 6.0 | 10.0 | 0.00 | 0.00 | 0.00 | 76 | 1012.3 |
| 20260905193530 | 71 | 346 | 3.0 | 10.0 | 0.00 | 0.00 | 0.00 | 76 | 1012.3 |
| 20260905192526 | 70 | 10 | 2.0 | 7.0 | 0.00 | 0.00 | 0.00 | 79 | 1012.3 |
| 20260905191522 | 71 | 1 | 2.0 | 7.0 | 0.00 | 0.00 | 0.00 | 78 | 1012.2 |
| 20260905190518 | 72 | 44 | 4.0 | 10.0 | 0.00 | 0.00 | 0.00 | 77 | 1012.1 |
| 20260905185534 | 73 | 49 | 4.0 | 10.0 | 0.00 | 0.00 | 0.00 | 76 | 1012.2 |
| 20260905184549 | 72 | 341 | 3.0 | 9.0 | 0.00 | 0.00 | 0.00 | 78 | 1012.2 |
| 20260905183525 | 72 | 37 | 3.0 | 9.0 | 0.00 | 0.00 | 0.00 | 78 | 1012.1 |